This is the latest recevied weather packets stored in our database for station/object W9QL-13. If no packets are shown the sender has not sent any weather packets the latest 1 day(s).
| Time | Temp. | Humidity | Pressure | Rain* | Wind** | Luminosity | Snow |
|---|---|---|---|---|---|---|---|
| 1778041324 | 8.33° C | 37% | 1010.2 hPa | 0 mm | 1.34 m/s, 73° | - | - |
| 1778041024 | 8.33° C | 37% | 1010.1 hPa | 0 mm | 0 m/s | - | - |
| 1778040694 | 8.33° C | 37% | 1009.9 hPa | 0 mm | 0.45 m/s, 32° | - | - |
| 1778040364 | 8.89° C | 37% | 1009.8 hPa | 0 mm | 0 m/s | - | - |
| 1778040034 | 8.89° C | 37% | 1009.8 hPa | 0 mm | 0 m/s | - | - |
| 1778039734 | 8.89° C | 37% | 1009.9 hPa | 0 mm | 0 m/s | - | - |
| 1778039434 | 8.89° C | 37% | 1009.8 hPa | 0 mm | 0 m/s | - | - |
| 1778039145 | 9.44° C | 37% | 1009.6 hPa | 0 mm | 0 m/s | - | - |
| 1778038834 | 9.44° C | 37% | 1009.4 hPa | 0 mm | 0 m/s | - | - |
| 1778038534 | 9.44° C | 37% | 1009.4 hPa | 0 mm | 0 m/s | - | - |
| 1778038234 | 9.44° C | 37% | 1009.3 hPa | 0 mm | 0.45 m/s, 28° | - | - |
| 1778037933 | 9.44° C | 37% | 1009.3 hPa | 0 mm | 0 m/s | - | - |
| 1778037634 | 10° C | 37% | 1009.3 hPa | 0 mm | 0 m/s | - | - |
| 1778037303 | 10° C | 37% | 1009.4 hPa | 0 mm | 0.45 m/s, 35° | - | - |
| 1778037003 | 10° C | 37% | 1009.4 hPa | 0 mm | 0.45 m/s, 48° | - | - |
| 1778036674 | 10° C | 37% | 1009.4 hPa | 0 mm | 0 m/s | - | - |
| 1778036373 | 10° C | 37% | 1009.5 hPa | 0 mm | 0.45 m/s, 20° | - | - |
| 1778036073 | 10° C | 37% | 1009.5 hPa | 0 mm | 0.45 m/s, 10° | - | - |
| 1778035773 | 10° C | 37% | 1009.2 hPa | 0 mm | 0.45 m/s, 26° | - | - |
| 1778035473 | 10.56° C | 37% | 1009.1 hPa | 0 mm | 0.89 m/s, 14° | - | - |
| 1778035173 | 10.56° C | 37% | 1009.1 hPa | 0 mm | 1.34 m/s, 40° | - | - |
| 1778034876 | 10.56° C | 37% | 1008.9 hPa | 0 mm | 0.89 m/s, 25° | - | - |
| 1778034573 | 10° C | 37% | 1008.9 hPa | 0 mm | 2.24 m/s, 27° | - | - |
| 1778034243 | 10° C | 37% | 1008.9 hPa | 0 mm | 1.34 m/s, 15° | - | - |
| 1778033943 | 10° C | 37% | 1008.9 hPa | 0 mm | 0.89 m/s, 11° | - | - |
* Rain latest hour (hover to see other rain measurements)
** Current wind speed in m/s (hover to see current wind gust speed)